Bedford, MA

10:47 PM EDT on March 24, 2017 (GMT -0400)
Hanscom

Weather History for KBED - June, 2014

Change the Weather History Date:

Tuesday, June 17, 2014

  Actual Average Record
Temperature  
Mean Temperature 73 °F -  
Max Temperature 86 °F 78 °F 92 °F (1957)
Min Temperature 60 °F 56 °F 40 °F (1965)
Cooling Degree Days 8    
Growing Degree Days 23 (Base 50)    
Moisture  
Dew Point 63 °F    
Average Humidity 72    
Maximum Humidity 93    
Minimum Humidity 40    
Precipitation  
Precipitation 0.04 in - - ()
Sea Level Pressure  
Sea Level Pressure 30.00 in    
Wind  
Wind Speed 7 mph (SSW)    
Max Wind Speed 12 mph    
Max Gust Speed -    
Visibility 10 miles    
Events Rain    
Averages and records for this station are not official NWS values.
T = Trace of Precipitation, MM = Missing Value Source: NWS Daily Summary

Daily Weather History Graph

Daily Weather History Graph

Search for Another Location

Airport or City:

Trip Planner

Search our weather history database for the weather conditions in past years. The results will help you decide how hot, cold, wet, or windy it might be!

Date:

Astronomy

Jun. 17, 2014 Rise Set
Actual Time 5:07 AM EDT 8:24 PM EDT
Civil Twilight 4:32 AM EDT 8:59 PM EDT
Nautical Twilight 3:47 AM EDT 9:44 PM EDT
Astronomical Twilight 2:52 AM EDT 10:40 PM EDT
Moon 11:45 PM EDT (6/17) 10:23 AM EDT (6/17)
Length of Visible Light 16h 27m
Length of Day
15h 17m
Waning Gibbous, 73% of the Moon is Illuminated
Jun 17
Waning Gibbous
Jun 19
Last Quarter
Jun 27
New
Jul 5
First Quarter
Jul 12
Full

Hourly Weather History & Observations

Time (EDT) Temp. Heat Index Dew Point Humidity Pressure Visibility Wind Dir Wind Speed Gust Speed Precip Events Conditions
12:56 AM 64.9 °F - 54.0 °F 68% 30.08 in 10.0 mi SSW 6.9 mph - N/A   Mostly Cloudy
1:56 AM 64.9 °F - 54.0 °F 68% 30.06 in 10.0 mi South 5.8 mph - N/A   Overcast
2:56 AM 64.9 °F - 54.0 °F 68% 30.06 in 10.0 mi SSW 4.6 mph - N/A   Overcast
3:56 AM 64.9 °F - 54.0 °F 68% 30.05 in 10.0 mi SSW 5.8 mph - 0.00 in   Overcast
4:56 AM 61.0 °F - 57.9 °F 90% 30.06 in 10.0 mi Calm Calm - 0.04 in Rain Light Rain
5:56 AM 60.1 °F - 57.9 °F 93% 30.06 in 10.0 mi South 4.6 mph - 0.00 in   Overcast
6:56 AM 62.1 °F - 57.9 °F 86% 30.06 in 10.0 mi SSW 6.9 mph - N/A   Partly Cloudy
7:56 AM 64.0 °F - 59.0 °F 84% 30.08 in 10.0 mi SSW 9.2 mph - N/A   Mostly Cloudy
8:56 AM 66.9 °F - 61.0 °F 81% 30.08 in 10.0 mi SSW 6.9 mph - N/A   Mostly Cloudy
9:56 AM 72.0 °F - 63.0 °F 73% 30.08 in 10.0 mi SW 4.6 mph - N/A   Scattered Clouds
10:56 AM 75.0 °F - 64.9 °F 71% 30.06 in 10.0 mi South 9.2 mph - N/A   Clear
11:56 AM 78.1 °F - 66.0 °F 66% 30.04 in 10.0 mi SW 9.2 mph - N/A   Clear
12:56 PM 81.0 °F 83.3 °F 66.9 °F 62% 30.02 in 10.0 mi SSW 10.4 mph - N/A   Clear
1:56 PM 82.9 °F 85.4 °F 66.9 °F 58% 30.00 in 10.0 mi SW 9.2 mph - N/A   Clear
2:56 PM 84.9 °F 87.6 °F 66.9 °F 55% 29.98 in 10.0 mi SSW 10.4 mph - N/A   Clear
3:56 PM 84.9 °F 87.1 °F 66.0 °F 53% 29.95 in 10.0 mi SSW 10.4 mph - N/A   Clear
4:56 PM 86.0 °F 85.4 °F 59.0 °F 40% 29.95 in 10.0 mi WSW 8.1 mph - N/A   Clear
5:56 PM 82.0 °F 85.9 °F 70.0 °F 67% 29.93 in 10.0 mi South 11.5 mph - N/A   Clear
6:56 PM 81.0 °F 84.9 °F 71.1 °F 72% 29.93 in 10.0 mi South 11.5 mph - N/A   Clear
7:56 PM 79.0 °F - 70.0 °F 74% 29.91 in 10.0 mi South 11.5 mph - N/A   Clear
8:56 PM 77.0 °F - 70.0 °F 79% 29.90 in 10.0 mi South 10.4 mph - N/A   Clear
9:56 PM 73.9 °F - 69.1 °F 85% 29.90 in 10.0 mi South 9.2 mph - N/A   Clear
10:56 PM 72.0 °F - 68.0 °F 87% 29.90 in 10.0 mi SSW 9.2 mph - N/A   Clear
11:56 PM 70.0 °F - 66.9 °F 90% 29.88 in 9.0 mi South 8.1 mph - N/A   Clear